RH
69 61 69 66 61 59 58 56 56 58 61 49 50 46 51 54 52 47 41 40 46 50 50 52 47 45 46 46 45 49 49 48 52 45 38 36 36 35 33 30 26 22 20 17
58 58 75 69 64 58 57 53 54 61 72 69 68 65 70 70 67 61 56 51 56 58 55 56 52 52 50 50 55 56 50 54 61 45 43 42 39 35 31 26 22 17 13 9
59 64 68 63 62 59 57 58 65 61 68 73 69 60 70 70 67 65 64 59 56 58 63 60 59 57 58 58 62 61 64 75 76 55 47 42 38 33 25 20 16 13 9 7
47 66 69 69 62 68 56 62 55 56 56 53 65 55 72 79 82 83 73 64 61 63 61 59 61 60 63 67 65 66 93 90 57 52 48 42 34 27 20 14 9 6 5 10
52 61 71 66 69 66 52 61 63 59 52 50 50 50 40 55 58 63 65 66 68 74 73 76 79 75 81 77 80 99 92 59 53 52 44 39 27 16 12 8 5 4 11 24
57 64 57 57 54 51 48 44 37 35 36 39 42 53 36 53 52 52 58 69 76 85 98 98 95 99 100 100 100 82 61 53 51 48 44 32 19 13 10 6 4 4 36 45
56 51 50 52 50 51 49 50 45 45 42 38 45 63 46 60 63 66 74 84 92 97 100 100 100 100 100 97 85 66 58 51 45 43 33 20 14 9 6 4 4 4 22 49
49 44 46 48 45 43 49 79 81 72 56 53 65 61 56 64 79 91 90 90 92 100 100 100 100 100 96 87 73 63 57 45 40 29 21 14 10 8 7 7 5 3 15 36
54 44 42 39 36 41 47 53 69 87 72 74 65 62 67 80 100 92 87 87 87 89 96 96 90 91 96 91 70 54 43 32 21 13 12 11 10 11 10 10 7 3 8 37
62 56 48 46 44 44 52 77 86 87 96 96 84 78 89 94 92 97 85 96 95 96 95 100 100 96 70 51 46 34 20 10 11 12 11 16 30 29 19 13 7 8 18 48
87 81 58 63 57 59 71 83 93 97 98 96 88 79 90 96 92 98 100 100 100 100 100 99 60 50 46 40 28 13 11 12 12 16 15 43 34 18 56 92 95 89 83 85
100 98 69 78 78 77 76 90 100 100 86 95 100 66 100 100 97 100 100 100 100 86 89 65 48 51 52 22 11 12 12 12 24 7 30 72 79 87 85 98 100 100 68 37
98 100 90 75 84 79 81 96 100 100 91 83 100 79 100 100 100 94 94 100 100 87 68 64 58 48 20 12 14 11 18 37 10 10 65 76 61 69 77 98 100 68 16 14
100 100 90 79 84 100 98 94 99 100 100 99 84 85 93 100 97 91 88 100 100 97 89 65 57 21 14 15 9 13 35 21 21 55 53 56 62 93 100 100 92 55 25 34
100 100 100 88 90 85 98 100 92 100 100 99 95 79 91 98 100 85 99 100 100 98 91 68 28 12 14 8 17 40 45 46 58 64 66 78 97 99 84 57 57 43 43 47
100 98 100 100 100 100 100 100 100 92 97 97 96 69 93 100 100 100 100 100 99 97 75 31 13 15 10 30 52 59 62 66 71 72 69 83 93 93 97 87 27 17 14 14
96 90 98 95 98 100 92 67 99 99 98 93 78 74 75 84 96 98 100 99 93 74 30 17 20 13 14 61 66 73 81 89 89 90 66 79 100 85 17 14 15 16 18 19
100 100 100 100 100 99 96 100 98 100 96 100 91 82 79 87 100 100 97 71 44 38 22 25 16 14 12 55 73 76 79 89 94 93 92 97 71 16 12 14 20 20 22 22
96 100 100 100 100 100 94 80 86 97 82 92 92 95 99 100 100 96 69 57 36 24 23 18 18 14 12 40 69 77 74 85 93 95 92 44 16 12 14 19 22 21 20 23
96 100 100 98 90 76 60 76 89 96 52 86 91 98 100 100 78 73 74 62 32 25 19 20 20 15 21 75 85 78 75 83 55 26 18 14 12 12 18 22 21 22 19 20
100 100 100 100 97 69 60 64 75 71 69 89 91 91 95 88 81 92 99 74 35 21 22 24 23 20 16 77 86 88 82 86 66 17 11 12 12 15 16 16 16 16 16 15
90 98 100 100 90 55 56 85 82 74 71 69 73 84 86 70 52 41 40 36 27 30 29 28 25 22 18 36 97 96 82 84 66 12 10 13 15 16 15 14 13 12 13 16
100 94 100 100 77 79 73 72 75 68 69 69 85 81 98 83 62 49 59 42 45 41 41 30 26 21 20 61 78 97 97 88 69 11 13 15 14 13 11 11 12 14 14 18
100 100 89 77 80 87 83 75 69 87 76 83 100 100 100 99 94 77 31 32 54 61 39 30 27 30 53 86 98 100 100 94 45 14 15 15 13 11 12 12 14 15 17 20
100 99 90 86 76 74 85 88 85 84 94 99 100 100 100 100 86 55 43 76 77 66 40 32 28 52 87 98 100 100 100 58 20 15 16 14 13 13 15 16 18 19 21 25
71 68 75 63 70 92 96 98 92 96 100 100 100 100 100 98 65 69 56 44 53 54 40 33 35 52 95 100 100 100 82 30 17 17 15 14 15 16 19 21 22 26 32 39
Wind_Speed
32 32 27 32 36 36 35 35 34 30 35 43 43 43 43 45 45 43 42 43 46 47 46 40 41 44 47 49 49 49 49 41 46 48 50 51 53 54 54 53 53 54 56 57
32 32 27 33 35 38 38 40 39 37 36 43 46 46 47 48 49 50 48 48 48 49 46 43 44 48 49 47 47 47 45 46 48 53 51 51 52 52 53 54 54 55 56 55
36 33 32 35 37 39 40 43 40 41 37 39 43 47 47 48 50 49 48 48 48 47 47 48 50 51 51 49 46 45 46 45 52 57 54 54 52 52 52 53 54 54 53 52
43 30 32 36 38 36 41 36 42 43 42 43 43 47 42 43 45 47 47 49 49 48 47 48 52 54 51 50 49 48 45 51 59 56 56 51 52 55 54 54 53 51 49 47
41 39 36 40 39 43 46 46 44 46 46 46 49 46 43 43 43 43 43 45 47 47 45 48 54 54 51 52 50 47 53 59 56 56 52 54 55 53 53 53 51 48 45 43
48 42 45 40 40 42 44 45 44 44 45 50 48 50 49 47 47 48 46 42 39 41 46 51 54 50 50 49 49 55 56 55 55 53 57 56 55 53 52 52 49 45 42 42
51 51 48 47 47 47 47 45 45 48 50 51 50 53 47 48 49 48 44 42 42 42 41 44 42 42 45 52 56 56 55 56 56 59 57 57 55 53 51 49 48 44 42 41
52 51 50 51 52 49 49 47 50 53 52 52 51 53 50 48 44 42 45 43 37 34 34 35 42 47 50 52 54 54 56 58 58 57 58 58 55 53 52 50 47 43 41 40
45 44 47 47 47 48 47 50 49 52 53 52 51 50 46 46 40 44 46 43 36 37 41 43 45 44 46 51 54 55 57 56 57 58 58 60 60 58 55 53 47 42 39 38
45 46 44 45 46 47 48 49 51 53 51 51 51 48 45 42 44 44 41 37 35 34 35 38 42 46 49 51 53 52 53 55 56 60 58 49 45 44 43 42 41 39 37 36
41 43 42 44 44 45 47 49 49 48 49 51 50 48 45 46 43 36 34 31 31 32 34 41 44 44 48 48 48 50 51 55 58 52 43 40 42 37 33 31 30 31 32 31
40 42 42 41 43 44 47 48 47 48 47 49 49 47 48 46 42 38 35 35 34 34 36 38 42 44 44 44 46 48 54 51 48 42 34 29 28 30 33 36 34 28 25 26
41 43 42 42 44 46 46 48 49 49 49 50 51 51 48 43 37 33 35 38 35 35 37 39 43 42 43 43 47 50 46 45 40 33 30 32 35 37 40 36 31 25 24 24
40 45 44 43 43 42 43 46 45 48 53 50 51 50 45 39 35 36 37 36 36 40 38 42 42 41 42 45 45 43 41 36 33 31 33 36 40 37 33 29 22 23 23 23
48 48 49 47 47 45 45 44 46 49 50 48 40 40 40 38 37 41 39 39 42 39 41 42 39 40 42 43 39 39 34 32 32 34 35 33 30 26 23 23 23 25 26 26
51 48 48 51 48 47 51 47 50 42 44 42 42 37 39 39 41 44 45 45 41 39 40 37 36 37 38 34 35 33 29 32 32 31 30 28 25 27 27 27 26 25 25 24
37 38 47 45 43 43 48 46 39 40 41 44 43 37 39 42 41 40 38 36 37 38 35 33 33 35 34 31 31 30 30 29 31 30 28 29 28 27 28 27 26 23 21 21
44 43 40 47 37 41 33 35 39 40 40 41 41 38 38 38 35 34 33 32 34 32 32 31 30 34 32 30 29 28 30 33 34 30 29 28 26 28 27 25 23 22 22 22
41 39 47 37 42 44 47 37 39 36 37 36 35 32 32 31 31 28 29 32 31 30 30 30 30 32 31 31 29 30 33 35 33 27 25 26 27 27 25 23 23 24 26 27
37 33 35 38 39 43 34 30 33 32 30 31 27 28 30 30 27 27 27 29 30 28 29 30 30 30 30 29 28 30 30 27 22 24 27 28 26 24 22 22 24 26 29 30
33 32 41 32 26 29 26 30 30 32 31 29 30 32 29 25 27 27 30 33 30 30 30 30 29 31 31 29 27 28 27 26 26 28 28 26 23 22 22 24 27 29 32 33
32 30 35 31 30 29 28 26 30 33 34 32 32 28 24 25 27 30 30 28 30 31 29 29 30 33 33 30 29 29 27 27 27 28 26 24 22 22 24 27 29 31 32 33
36 43 37 33 31 28 29 30 33 35 32 29 24 25 20 23 27 26 26 28 29 27 27 29 31 34 32 30 31 30 28 28 27 27 24 24 22 23 25 28 29 31 33 34
34 32 31 29 30 28 30 33 34 28 27 25 19 19 22 24 26 27 30 28 28 26 28 29 32 32 30 30 29 28 28 26 26 26 23 24 22 23 25 27 29 31 32 34
30 31 33 34 37 38 37 33 33 33 32 33 28 27 27 29 31 32 28 28 29 28 30 30 32 31 31 29 28 29 28 26 26 25 24 23 22 23 25 27 29 31 33 34
27 29 33 35 35 32 32 32 34 28 28 32 31 31 28 30 31 29 30 31 32 30 30 31 31 33 30 27 27 27 26 27 26 25 24 22 22 24 26 28 30 32 34 35
Wind_Direction
255 259 263 264 266 270 274 276 278 279 279 281 282 283 284 282 284 284 279 277 279 282 287 291 287 285 287 287 289 286 286 283 293 298 299 299 300 299 298 296 296 294 292 290
262 263 262 263 269 272 276 279 281 281 280 282 284 285 283 285 286 285 285 284 286 288 291 289 283 283 282 283 282 280 284 292 301 303 303 301 299 297 297 295 294 292 290 289
265 264 264 268 271 275 278 280 286 283 281 280 282 280 282 284 283 284 283 284 284 285 286 287 285 283 285 285 284 283 293 296 299 302 303 301 299 298 298 296 294 291 291 293
266 271 271 271 274 276 277 284 282 284 284 286 279 281 281 281 279 280 283 283 283 284 284 284 281 280 284 285 284 288 294 297 301 301 301 299 299 298 297 296 296 296 297 296
272 271 266 270 275 278 283 284 284 284 284 284 281 280 282 275 275 274 275 276 276 277 277 277 276 280 282 281 285 289 291 298 299 299 296 295 296 298 299 299 299 298 298 298
274 276 276 277 274 274 277 282 284 282 279 278 281 275 278 276 278 281 282 278 276 268 271 271 270 274 274 278 284 292 296 296 295 294 296 297 299 299 299 299 300 298 297 298
275 275 275 277 277 275 277 274 275 274 272 276 271 271 276 277 281 285 284 282 279 274 270 265 264 264 276 292 296 296 294 294 295 296 296 298 300 298 297 298 298 295 293 295
270 272 270 269 269 269 267 264 263 267 271 270 268 271 277 280 286 288 287 285 281 266 251 274 282 289 292 292 291 290 290 294 295 296 299 299 299 297 297 297 297 294 291 292
267 264 261 261 259 261 263 264 270 269 270 270 270 273 278 284 289 290 288 288 281 270 272 279 282 284 285 287 288 289 293 294 297 298 297 298 296 292 290 291 294 292 290 290
259 260 256 255 257 257 259 262 262 264 266 270 275 276 277 277 288 288 285 281 281 276 275 278 279 282 285 285 289 292 295 297 299 302 305 305 300 297 290 286 287 288 285 287
258 258 258 258 259 261 261 262 262 265 267 269 273 277 277 285 289 286 286 277 270 269 272 277 282 282 284 289 292 295 299 303 305 304 305 304 299 296 293 297 294 291 287 286
259 260 257 258 260 260 262 264 262 262 269 272 273 278 281 286 281 283 283 277 276 277 277 283 285 286 288 292 298 302 305 305 307 310 304 307 307 310 312 303 299 295 291 289
262 261 261 258 257 257 261 265 265 266 271 275 273 281 287 280 280 283 276 275 268 278 285 286 288 292 296 302 304 305 305 307 309 313 302 300 306 306 308 301 296 297 294 292
262 264 264 263 262 259 260 262 267 270 271 273 273 278 280 282 284 280 272 268 272 287 291 289 295 298 299 300 304 304 305 308 311 316 310 303 302 302 300 292 288 300 301 300
244 249 256 264 257 261 266 260 271 265 267 269 271 275 275 273 276 275 266 273 278 289 286 289 293 293 297 304 303 305 303 309 310 307 304 303 306 304 308 310 302 300 301 304
249 246 244 246 250 259 257 261 265 268 269 268 279 275 276 269 262 269 276 280 283 279 282 288 290 292 305 304 308 303 300 303 304 302 303 309 310 307 308 307 303 300 300 300
257 256 253 255 255 254 258 258 262 271 272 277 274 276 272 269 268 275 276 274 274 276 285 286 286 305 307 301 308 302 296 301 303 303 299 304 302 305 304 303 303 303 304 304
245 246 251 244 245 248 254 258 272 271 270 270 271 269 268 271 274 274 272 272 275 280 280 283 293 307 302 295 299 300 300 299 300 298 295 297 300 300 301 299 299 303 308 311
249 244 253 256 260 257 263 272 268 269 268 266 267 270 270 267 266 268 272 276 279 280 283 289 297 308 301 293 292 292 302 300 297 294 295 296 297 300 299 299 301 307 310 309
251 236 246 254 258 261 265 262 264 269 265 269 271 261 258 257 264 263 266 276 283 283 288 294 299 309 304 297 288 292 298 304 303 301 297 296 297 299 298 302 306 307 306 306
246 252 233 245 259 261 262 259 267 271 276 268 256 253 257 257 254 253 265 276 285 289 290 294 302 308 301 299 288 290 298 303 301 303 299 296 298 299 304 307 309 308 307 307
259 239 244 253 260 264 257 265 273 272 265 263 263 259 253 253 256 260 268 278 282 286 289 295 301 304 303 292 290 289 294 302 301 303 299 297 298 305 309 310 308 308 308 307
250 253 253 254 262 258 259 263 269 265 265 263 261 255 257 263 262 267 276 279 282 285 291 296 300 304 297 289 286 287 287 295 300 301 297 295 301 307 310 310 311 312 310 309
248 253 260 258 252 257 261 267 270 261 261 267 245 246 254 258 263 266 280 282 285 289 295 297 304 303 295 292 285 285 286 291 296 296 294 297 302 308 310 312 314 314 312 310
242 250 255 256 261 263 265 266 262 262 256 263 261 254 258 264 266 276 281 283 286 292 296 298 304 303 298 289 282 286 289 290 295 294 294 295 301 307 310 313 314 313 313 311
267 265 257 258 259 258 257 252 251 254 256 256 257 256 253 262 273 273 279 281 285 291 293 296 302 307 298 286 282 285 283 288 292 291 292 294 300 305 309 312 314 314 314 314